Regional Weather Roundup
Issued by NWS

Home | Current Version | Previous Version | Graphics & Text | Print | Product List | Glossary Off
Versions: 1 2 3 4 5 6 7 8 9 10 11 12 13 14 15 16 17 18 19 20 21 22 23 24 25 26 27 28 29 30 31 32 33 34 35 36 37 38 39 40 41 42 43 44 45 46 47 48 49 50

000
ASUS43 KDTX 240310
RWRMI
MICHIGAN HOURLY REGIONAL WEATHER ROUNDUP
NATIONAL WEATHER SERVICE DETROIT/PONTIAC MI
1100 PM EDT SAT SEP 23 2017

NOTE: "FAIR" INDICATES FEW OR NO CLOUDS BELOW 12,000 FEET WITH NO
SIGNIFICANT WEATHER AND/OR OBSTRUCTION TO VISIBILITY.

MIZ047>049-052>055-059>063-066>070-074>076-081>083-240400-
SOUTHEAST LOWER MICHIGAN

CITY           SKY/WX    TMP DP  RH WIND       PRES   REMARKS
ADRIAN           N/A     68  60  75 NE3       30.13S
ALMA           CLEAR     75  56  52 S5        30.11S
ANN ARBOR      CLEAR     64  63  96 CALM      30.13R
BAD AXE        CLEAR     72  63  73 S5        30.12S
CARO           CLEAR     67  64  91 CALM      30.11S
DETROIT CITY   CLEAR     75  63  66 CALM      30.13R
DETROIT        CLEAR     74  65  73 CALM      30.13S
FLINT          CLEAR     66  61  84 S6        30.12R
GROSSE ILE     CLEAR     69  68  94 CALM      30.11S
HILLSDALE      CLEAR     70  59  68 SE5       30.13S
HOWELL         CLEAR     72  62  70 CALM      30.14R

CITY           SKY/WX    TMP DP  RH WIND       PRES   REMARKS
JACKSON        CLEAR     74  60  61 E3        30.13R
LAMBERTVILLE   CLEAR     67  64  89 CALM      30.12R
LANSING        CLEAR     76  59  55 S7        30.13R
LAPEER         FAIR      68  65  91 CALM      30.13R
MASON          CLEAR     72  62  69 CALM      30.13S
MONROE         CLEAR     66  64  90 CALM      30.11S
MT. CLEMENS    CLEAR     69  67  93 CALM      30.12R
PONTIAC        CLEAR     73  65  75 CALM      30.13R
PORT HOPE        N/A     75  64  68 VRB5      30.09S
PORT HURON     CLEAR     66  64  94 CALM      30.13R FOG
TRI CITIES     CLEAR     79  64  60 S9        30.11R
MIDLAND        FAIR      69  65  89 CALM      30.09S
TROY           CLEAR     76  58  53 W3        30.15R
SAGINAW HB     CLEAR     73  63  68 S6        30.10S
$$
MIZ043>046-050>051-056>058-064>065-071>073-077>080-240400-
SOUTHWEST LOWER MICHIGAN

CITY           SKY/WX    TMP DP  RH WIND       PRES   REMARKS
BATTLE CREEK   CLEAR     76  62  62 SE5       30.13R
BENTON HARBOR  CLEAR     75  64  68 SE6       30.08R
BIG RAPIDS     CLEAR     70  66  86 W3        30.11R
COLDWATER      CLEAR     74  61  65 CALM      30.13R
FREMONT        FAIR      70  67  89 CALM      30.09R
HOLLAND        CLEAR     69  64  84 CALM      30.10R
GRAND RAPIDS   CLEAR     75  61  61 SE3       30.10R
IONIA          FAIR      76  57  52 SE6       30.11R
KALAMAZOO      CLEAR     70  62  76 CALM      30.11R
LUDINGTON      CLEAR     68  66  92 CALM      30.07S
MARSHALL       CLEAR     67  64  89 CALM      30.12S
MUSKEGON       CLEAR     72  66  81 CALM      30.09R
SOUTH HAVEN    CLEAR     68  66  92 NE3       30.08S
$$
MIZ016>042-240400-
NORTHERN LOWER MICHIGAN

CITY           SKY/WX    TMP DP  RH WIND       PRES   REMARKS
ALPENA         CLEAR     71  70  96 CALM      30.08S
BEAVER ISLAND  CLEAR     74  65  73 SW8       30.06S
BELLAIRE       FOG       66  65  94 CALM      30.07S VSB 3/4
CADILLAC       CLEAR     68  64  88 CALM      30.11F
CHARLEVOIX     CLEAR     77  64  63 CALM      30.10R
FRANKFORT      CLEAR     68  67  98 CALM      30.07S
GAYLORD        CLEAR     72  66  81 CALM      30.12R
GRAYLING       CLEAR     65  63  93 CALM      30.13R
HARBOR SPRINGS CLEAR     70  66  89 CALM      30.07S
HOUGHTON LAKE  CLEAR     68  65  90 CALM      30.12R
MANISTEE       CLEAR     66  65  96 E5        30.07R
OSCODA         CLEAR     70  65  85 SW5       30.09R
PELLSTON       CLEAR     65  63  93 CALM      30.07R FOG
ROGERS CITY    CLEAR     70  67  90 CALM      30.08S
TRAVERSE CITY  CLEAR     73  66  78 CALM      30.06R
$$
MIZ007>008-015-240400-
EASTERN UPPER MICHIGAN

CITY           SKY/WX    TMP DP  RH WIND       PRES   REMARKS
KINROSS        CLEAR     69  64  84 CALM      30.07R
MACKINAC ISLAN CLEAR     71  63  77 CALM      30.07R
NEWBERRY       CLEAR     68  67  96 SW8       30.06R
S. S. MARIE    CLEAR     69  65  86 CALM      30.05S
MUNISING         N/A     72  69  90 S6        30.02R
$$
MIZ004>006-011>014-085-240400-
CENTRAL UPPER MICHIGAN

CITY           SKY/WX    TMP DP  RH WIND       PRES   REMARKS
MANISTIQUE     CLEAR     67  61  81 SW7       30.05R
ESCANABA       CLEAR     72  67  84 S5        30.03R
MENOMINEE      PTCLDY    75  66  73 SW7       30.04R
SAWYER-GWINN   CLEAR     71  66  82 S6        30.04S
$$
MIZ001>003-009>011-084-240400-
WESTERN UPPER MICHIGAN

CITY           SKY/WX    TMP DP  RH WIND       PRES   REMARKS
IRON MOUNTAIN  PTCLDY    71  65  81 S3        30.03S
HOUGHTON       CLOUDY    68  65  90 E5        30.00S
COPPER HARBOR    N/A     70  67  90 CALM      29.98S
IRONWOOD       CLOUDY    76  68  76 S5        30.00S
$$

ABBREVIATIONS USED IN REMARKS
   TC - TEMPERATURE IN CELSIUS
  WCI - WIND CHILL INDEX
   HX - HEAT INDEX
  VSB - VISIBILITY





USA.gov is the U.S. government's official web portal to all federal, state and local government web resources and services.